Weather History for KGCK - November, 2012

Change the Weather History Date:

Saturday, November 24, 2012

  Actual Average Record
Temperature  
Mean Temperature 44 °F 38 °F  
Max Temperature 64 °F 51 °F 81 °F (1990)
Min Temperature 23 °F 24 °F 2 °F (1982)
Degree Days  
Heating Degree Days 21 28  
Month to date heating degree days 393 528  
Since 1 July heating degree days 824 918  
Cooling Degree Days 0 0  
Month to date cooling degree days 0 0  
Year to date cooling degree days 1643 1298  
Moisture  
Dew Point 19 °F    
Average Humidity 44    
Maximum Humidity 68    
Minimum Humidity 20    
Precipitation  
Precipitation 0.00 in 0.02 in 0.39 in (1992)
Month to date precipitation 0.00 0.45  
Year to date precipitation 12.67 18.85  
Sea Level Pressure  
Sea Level Pressure 30.06 in    
Wind  
Wind Speed 9 mph (SSW)    
Max Wind Speed 18 mph    
Max Gust Speed 21 mph    
Visibility 10 miles    
Events      
T = Trace of Precipitation, MM = Missing Value Source: NWS Daily Summary

Daily Weather History Graph

Daily Weather History Graph

Search for Another Location

Airport or City:

Trip Planner

Search our weather history database for the weather conditions in past years. The results will help you decide how hot, cold, wet, or windy it might be!

Date:

Astronomy

Nov. 24, 2012 Rise Set
Actual Time 7:33 AM CST 5:25 PM CST
Civil Twilight 7:04 AM CST 5:54 PM CST
Nautical Twilight 6:32 AM CST 6:26 PM CST
Astronomical Twilight 6:01 AM CST 6:58 PM CST
Moon 3:09 PM CST (11/24) 3:55 AM CST (11/24)
Length of Visible Light 10h 49m
Length of Day
9h 52m
Waxing Gibbous, 87% of the Moon is Illuminated
Nov 24
Waxing Gibbous
Nov 28
Full
Dec 6
Last Quarter
Dec 13
New
Dec 19
First Quarter

Hourly Weather History & Observations

Time (CST) Temp. Windchill Dew Point Humidity Pressure Visibility Wind Dir Wind Speed Gust Speed Precip Events Conditions
12:54 AM 30.0 °F 21.1 °F 14.0 °F 51% 30.32 in 10.0 mi South 10.4 mph - N/A   Clear
1:54 AM 30.9 °F 22.2 °F 14.0 °F 50% 30.29 in 10.0 mi South 10.4 mph - N/A   Clear
2:54 AM 28.9 °F 20.4 °F 14.0 °F 54% 30.27 in 10.0 mi South 9.2 mph - N/A   Clear
3:54 AM 28.0 °F 18.6 °F 14.0 °F 56% 30.24 in 10.0 mi South 10.4 mph - N/A   Clear
4:54 AM 26.1 °F 16.8 °F 15.1 °F 63% 30.21 in 10.0 mi South 9.2 mph - N/A   Clear
5:54 AM 25.0 °F 15.5 °F 15.1 °F 66% 30.21 in 10.0 mi SSW 9.2 mph - N/A   Clear
6:54 AM 24.1 °F 15.2 °F 15.1 °F 69% 30.20 in 10.0 mi SSW 8.1 mph - N/A   Clear
7:54 AM 24.1 °F 15.2 °F 16.0 °F 71% 30.20 in 10.0 mi SW 8.1 mph - N/A   Clear
8:54 AM 30.9 °F 22.2 °F 17.1 °F 57% 30.18 in 10.0 mi SW 10.4 mph - N/A   Clear
9:54 AM 39.9 °F 33.4 °F 17.1 °F 40% 30.14 in 10.0 mi WSW 10.4 mph - N/A   Clear
10:54 AM 48.9 °F - 18.0 °F 29% 30.09 in 10.0 mi SW 13.8 mph - N/A   Clear
11:54 AM 55.0 °F - 19.9 °F 25% 30.05 in 10.0 mi SW 11.5 mph - N/A   Clear
12:54 PM 57.0 °F - 21.0 °F 25% 30.00 in 10.0 mi SW 10.4 mph - N/A   Clear
1:54 PM 61.0 °F - 21.0 °F 21% 29.96 in 10.0 mi SSW 11.5 mph - N/A   Clear
2:54 PM 62.1 °F - 21.9 °F 21% 29.94 in 10.0 mi SSW 10.4 mph - N/A   Clear
3:54 PM 64.0 °F - 23.0 °F 21% 29.91 in 10.0 mi South 6.9 mph - N/A   Clear
4:54 PM 59.0 °F - 25.0 °F 27% 29.91 in 10.0 mi SSE 8.1 mph - N/A   Clear
5:54 PM 51.1 °F - 24.1 °F 35% 29.92 in 10.0 mi South 8.1 mph - N/A   Clear
6:54 PM 48.9 °F - 23.0 °F 36% 29.92 in 10.0 mi South 10.4 mph - N/A   Clear
7:54 PM 44.1 °F 39.5 °F 21.9 °F 42% 29.92 in 10.0 mi South 8.1 mph - N/A   Clear
8:54 PM 43.0 °F 38.8 °F 21.9 °F 43% 29.91 in 10.0 mi SSW 6.9 mph - N/A   Clear
9:54 PM 41.0 °F 35.8 °F 21.0 °F 45% 29.89 in 10.0 mi SSW 8.1 mph - N/A   Clear
10:54 PM 39.0 °F 34.0 °F 21.0 °F 49% 29.88 in 10.0 mi SW 6.9 mph - N/A   Clear
11:54 PM 37.9 °F 32.7 °F 21.0 °F 51% 29.87 in 10.0 mi West 6.9 mph - N/A   Clear